Home   Weather   Allentown   Past weeks

Flag for USA Past Weather in Allentown, Pennsylvania, USA — Yesterday and Last 2 Weeks

Now
43 °F

Clear.


Feels Like: 41 °F
Forecast: 45 / 72 °F
Wind: 3 mph from Northwest

Location: Lehigh Valley International Airport

Current Time: Sep 26, 2016 at 6:38:55 AM

Latest Report: Sep 26, 2016 at 5:51 AM


Visibility: 10 mi

Pressure: 30.18 "Hg

Humidity: 86%

Dew Point: 39 °F

Location of AllentownLocation

Past Weather in Allentown — Graph

°F

Allentown Temperature Yesterday

Maximum temperature yesterday: 73 °F (at 3:51 PM)
Minimum temperature yesterday: 45 °F (at 5:51 AM)
Average temperature yesterday: 58 °F

High & Low Weather Summary for the Past Weeks

 TemperatureHumidityPressure
High91 °F (Sep 14, 3:51 PM)96% (Sep 20, 7:51 AM)30.33 "Hg (Sep 20, 7:51 AM)
Low43 °F (Sep 26, 4:51 AM)24% (Sep 12, 5:51 PM)29.85 "Hg (Sep 11, 4:51 AM)
Average69 °F64%30.13 "Hg
* Reported Sep 11 4:51 AM — Sep 26 4:51 AM, Allentown, Weather by CustomWeather, © 2016

Note: Actual official high and low records may vary slightly from our data, if they occured in-between our weather recording intervals... More about our weather records

Advertising

Allentown Weather History for the Previous 24 Hours

Scroll right to see more
 ConditionsComfort  
Time TempWeatherWind HumidityBarometerVisibility
4:51 AM
Mon, Sep 26
43 °FClear.No wind86%30.17 "Hg10 mi
3:51 AM44 °FClear.No wind85%30.17 "Hg10 mi
2:51 AM44 °FClear.5 mph85%30.17 "Hg10 mi
1:51 AM46 °FClear.3 mph79%30.19 "Hg10 mi
12:51 AM49 °FClear.No wind71%30.19 "Hg10 mi
11:51 PM
Sun, Sep 25
49 °FClear.3 mph77%30.19 "Hg10 mi
10:51 PM51 °FClear.3 mph69%30.19 "Hg10 mi
9:51 PM56 °FClear.3 mph55%30.19 "Hg10 mi
8:51 PM55 °FClear.3 mph57%30.17 "Hg10 mi
7:51 PM61 °FClear.No wind46%30.16 "Hg10 mi
6:51 PM64 °FSunny.3 mph40%30.15 "Hg10 mi
5:51 PM70 °FSunny.3 mph32%30.14 "Hg10 mi
4:51 PM71 °FSunny.8 mph30%30.13 "Hg10 mi
3:51 PM73 °FSunny.7 mph28%30.13 "Hg10 mi
2:51 PM72 °FSunny.7 mph33%30.15 "Hg10 mi
1:51 PM69 °FSunny.6 mph41%30.17 "Hg10 mi
12:51 PM67 °FSunny.No wind42%30.20 "Hg10 mi
11:51 AM64 °FSunny.7 mph47%30.22 "Hg10 mi
10:51 AM62 °FSunny.7 mph48%30.22 "Hg10 mi
9:51 AM58 °FSunny.3 mph58%30.24 "Hg10 mi
8:51 AM53 °FSunny.3 mph69%30.24 "Hg10 mi
7:51 AM48 °FSunny.No wind83%30.24 "Hg10 mi
6:51 AM45 °FClear.No wind86%30.22 "Hg10 mi
Weather by CustomWeather, © 2016

See weather overviewHow to use our weather pages